Flag for Germany Weather past 2 weeks in Bad Oeynhausen, North Rhine-Westphalia, Germany

Now
52 °F

Partly sunny.


Feels Like: 46 °F
Forecast: 41 / 54 °F
Wind: 17 mph from Northwest

Location: Bueckeburg

Current Time: Oct 22, 2014 at 6:31:05 PM

Latest Report: Oct 22, 2014 at 5:20 PM


Visibility: N/A

Pressure: 29.92 "Hg

Humidity: 72%

Dew point: 43 °F

Location of Bad OeynhausenLocation

Historic Weather in Bad Oeynhausen — Graph

°F

Bad Oeynhausen temperature yesterday

Maximum temperature yesterday: 57 °F (at 3:20 PM)
Minimum temperature yesterday: 48 °F (at 9:20 PM)
Average temperature yesterday: 54 °F

Past Weeks' High & Low Weather Summary

 TemperatureHumidityPressure
High73 °F (Oct 19, 2:20 PM)100% (Oct 11, 2:20 AM)30.15 "Hg (Oct 11, 2:20 AM)
Low46 °F (Oct 22, 2:20 AM)49% (Oct 14, 4:20 PM)29.42 "Hg (Oct 21, 5:20 PM)
Average57 °F82%29.82 "Hg
* Reported Oct 7 5:20 PM — Oct 22 5:20 PM, Bad Oeynhausen, Weather by CustomWeather, © 2014

Note: Actual official high and low records may vary slightly from our data, if they occured in-between our weather recording intervals... More about our weather records

Advertising

Bad Oeynhausen weather history for previous 24 hours

 ConditionsComfort  
Time TempWeatherWind HumidityBarometerVisibility
5:20 PM
Oct 22
52 °FPartly sunny.17 mph72%29.92 "HgN/A
4:20 PM52 °FPartly sunny.21 mph72%29.89 "HgN/A
3:20 PM52 °FPartly sunny.23 mph72%29.86 "HgN/A
2:20 PM50 °FDrizzle. Partly sunny.18 mph82%29.83 "Hg5 mi
1:20 PM48 °FDrizzle. Partly sunny.24 mph82%29.80 "Hg5 mi
12:20 PM48 °FDrizzle. Partly sunny.23 mph82%29.80 "HgN/A
11:20 AM46 °FDrizzle. More clouds than sun.26 mph87%29.77 "Hg5 mi
10:45 AM46 °FDrizzle. Mostly cloudy.23 mph87%29.77 "HgN/A
10:20 AM46 °FDrizzle. Mostly cloudy.24 mph87%29.77 "HgN/A
9:20 AM46 °FDrizzle. Partly sunny.18 mph87%29.77 "HgN/A
8:20 AM46 °FPassing clouds.21 mph82%29.77 "HgN/A
7:20 AM48 °FSprinkles. Passing clouds.20 mph76%29.74 "HgN/A
6:20 AM48 °FPassing clouds.20 mph82%29.71 "HgN/A
5:20 AM48 °FPartly cloudy.22 mph87%29.68 "Hg5 mi
4:20 AM46 °FLight rain. Partly cloudy.18 mph93%29.68 "Hg5 mi
3:20 AM46 °FLight rain. Partly cloudy.16 mph87%29.68 "HgN/A
2:20 AM46 °FPartly cloudy.17 mph87%29.65 "HgN/A
1:20 AM48 °FPartly cloudy.17 mph82%29.65 "HgN/A
12:20 AM48 °FPartly cloudy.16 mph82%29.62 "HgN/A
11:20 PM
Oct 21
48 °FPassing clouds.17 mph82%29.59 "HgN/A
10:20 PM48 °FPartly cloudy.17 mph87%29.56 "HgN/A
9:20 PM48 °FPassing clouds.17 mph82%29.50 "HgN/A
8:20 PM52 °FPassing clouds.14 mph82%29.47 "HgN/A
7:20 PM54 °FPartly cloudy.16 mph82%29.47 "HgN/A
6:20 PM54 °FRain showers. Broken clouds.16 mph88%29.42 "Hg3 mi
Weather by CustomWeather, © 2014

See weather overviewHow to use our weather pages